User: anonymous
Location: Unspecified
(0.0000°N, 0.0000°E)
Time: 17:09:36
(UTC+02:00)
Language:

Cosmos 1515 Rocket - Orbit

View from above orbital plane
View from above orbital plane
View from above satellite
View from above satellite

Ground track
Ground track

The orbit data is extracted from the following two-line orbital elements,

1 14552U 83122B   14293.48592847  .00000792  00000-0  94450-4 0    17
2 14552 082.5238 265.1294 0019045 118.0780 026.8127 14.82923803665294
Epoch (UTC): 20 October 2014 11:39:44
Eccentricity: 0.0019045
inclination: 82.5238°
perigee height: 607 km
apogee height: 633 km
right ascension of ascending node: 265.1294°
argument of perigee: 118.0780°
revolutions per day: 14.82923803
mean anomaly at epoch: 26.8127°
orbit number at epoch: 66529

The dashed part of the orbit path shows where the satellite is in the earth's shadow,  

DLR